User: anonymous   Login
Location: Unspecified
(0.0000°N, 0.0000°E)
Time: 06:35:16
(UTC+02:00)
Language:

Meteor PRIRODA - Orbit

View from above orbital plane
View from above orbital plane
View from above satellite
View from above satellite

Ground track
Ground track

The orbit data is extracted from the following two-line orbital elements,

1 12585U 81065A   15090.88630751  .00007230  00000-0  36828-3 0  9996
2 12585 097.3436 077.2400 0015666 352.3085 064.5372 15.16974060839562
Epoch (UTC): 31 March 2015 21:16:16
Eccentricity: 0.0015666
inclination: 97.3436°
perigee height: 504 km
apogee height: 526 km
right ascension of ascending node: 77.2400°
argument of perigee: 352.3085°
revolutions per day: 15.16974060
mean anomaly at epoch: 64.5372°
orbit number at epoch: 83956

The dashed part of the orbit path shows where the satellite is in the earth's shadow,  

DLR